Weather History for KENL - December, 2012

Change the Weather History Date:

Thursday, December 6, 2012

  Actual Average (KSLO) Record (KSLO)
Temperature  
Mean Temperature 44 °F -  
Max Temperature 53 °F 45 °F 66 °F (1980)
Min Temperature 36 °F 28 °F 5 °F (1977)
Degree Days  
Heating Degree Days 20    
Moisture  
Dew Point 38 °F    
Average Humidity 77    
Maximum Humidity 87    
Minimum Humidity 61    
Precipitation  
Precipitation 0.00 in - - ()
Sea Level Pressure  
Sea Level Pressure 30.04 in    
Wind  
Wind Speed 4 mph (ESE)    
Max Wind Speed 7 mph    
Max Gust Speed -    
Visibility 10 miles    
Events      
Averages and records for this station are not official NWS values.
T = Trace of Precipitation, MM = Missing Value Source: NWS Daily Summary

Daily Weather History Graph

Daily Weather History Graph

Search for Another Location

Airport or City:

Trip Planner

Search our weather history database for the weather conditions in past years. The results will help you decide how hot, cold, wet, or windy it might be!

Date:

Astronomy

Dec. 06, 2012 Rise Set
Actual Time 7:00 AM CST 4:35 PM CST
Civil Twilight 6:30 AM CST 5:04 PM CST
Nautical Twilight 5:57 AM CST 5:37 PM CST
Astronomical Twilight 5:25 AM CST 6:09 PM CST
Moon No Moon Rise 11:56 AM CST
Length of Visible Light 10h 34m
Length of Day
9h 35m
Waning Gibbous, 49% of the Moon is Illuminated
Dec 6
Waning Gibbous
Dec 13
New
Dec 19
First Quarter
Dec 28
Full
Jan 4
Last Quarter

Hourly Weather History & Observations

Time (CST) Temp. Windchill Dew Point Humidity Pressure Visibility Wind Dir Wind Speed Gust Speed Precip Events Conditions
12:15 AM 39.7 °F 36.5 °F 32.4 °F 75% 30.15 in 10.0 mi East 4.6 mph - N/A   Clear
12:35 AM 40.1 °F 36.9 °F 32.7 °F 75% 30.15 in 10.0 mi East 4.6 mph - N/A   Clear
12:55 AM 40.1 °F 36.9 °F 32.9 °F 75% 30.15 in 10.0 mi East 4.6 mph - N/A   Clear
1:15 AM 39.6 °F 36.3 °F 32.9 °F 77% 30.15 in 10.0 mi ESE 4.6 mph - N/A   Clear
1:35 AM 39.4 °F 37.2 °F 32.7 °F 77% 30.15 in 10.0 mi ESE 3.5 mph - N/A   Clear
1:55 AM 38.7 °F - 32.5 °F 79% 30.16 in 10.0 mi Calm Calm - N/A   Clear
2:15 AM 38.3 °F 34.8 °F 32.4 °F 79% 30.15 in 10.0 mi East 4.6 mph - N/A   Clear
2:35 AM 37.9 °F 33.5 °F 32.4 °F 80% 30.15 in 10.0 mi East 5.8 mph - N/A   Clear
2:55 AM 37.8 °F 34.2 °F 32.4 °F 81% 30.15 in 10.0 mi East 4.6 mph - N/A   Clear
3:15 AM 37.8 °F 34.2 °F 32.5 °F 81% 30.14 in 10.0 mi East 4.6 mph - N/A   Clear
3:35 AM 37.8 °F 34.2 °F 32.5 °F 81% 30.13 in 10.0 mi East 4.6 mph - N/A   Clear
3:55 AM 37.6 °F 34.0 °F 32.9 °F 83% 30.12 in 10.0 mi East 4.6 mph - N/A   Clear
4:15 AM 37.8 °F 33.3 °F 32.9 °F 83% 30.12 in 10.0 mi ESE 5.8 mph - N/A   Clear
4:35 AM 37.6 °F 34.0 °F 32.9 °F 83% 30.11 in 10.0 mi East 4.6 mph - N/A   Clear
4:55 AM 37.6 °F 33.1 °F 32.9 °F 83% 30.11 in 10.0 mi ESE 5.8 mph - N/A   Clear
5:15 AM 37.4 °F 32.1 °F 32.9 °F 84% 30.10 in 10.0 mi ESE 6.9 mph - N/A   Clear
5:35 AM 37.4 °F 33.8 °F 32.9 °F 84% 30.11 in 10.0 mi East 4.6 mph - N/A   Clear
5:55 AM 37.4 °F 33.8 °F 32.9 °F 84% 30.11 in 10.0 mi East 4.6 mph - N/A   Clear
6:15 AM 36.7 °F 32.9 °F 32.7 °F 86% 30.11 in 10.0 mi East 4.6 mph - N/A   Clear
6:35 AM 36.9 °F 33.1 °F 32.9 °F 86% 30.11 in 10.0 mi East 4.6 mph - N/A   Clear
6:55 AM 36.5 °F 31.8 °F 32.5 °F 86% 30.10 in 10.0 mi East 5.8 mph - N/A   Clear
7:15 AM 36.1 °F 31.4 °F 32.4 °F 86% 30.10 in 10.0 mi East 5.8 mph - N/A   Clear
7:35 AM 36.0 °F 32.1 °F 32.4 °F 87% 30.10 in 10.0 mi East 4.6 mph - N/A   Clear
7:55 AM 37.2 °F 33.6 °F 33.1 °F 85% 30.10 in 10.0 mi East 4.6 mph - N/A   Scattered Clouds
8:15 AM 39.2 °F 35.0 °F 34.0 °F 82% 30.10 in 10.0 mi ESE 5.8 mph - N/A   Scattered Clouds
8:35 AM 39.6 °F 34.7 °F 34.3 °F 82% 30.09 in 10.0 mi ESE 6.9 mph - N/A   Scattered Clouds
8:55 AM 40.5 °F 35.8 °F 34.7 °F 80% 30.09 in 10.0 mi East 6.9 mph - N/A   Mostly Cloudy
9:15 AM 41.0 °F 36.4 °F 35.1 °F 79% 30.09 in 10.0 mi East 6.9 mph - N/A   Overcast
9:35 AM 41.9 °F 38.2 °F 35.8 °F 79% 30.08 in 10.0 mi ESE 5.8 mph - N/A   Scattered Clouds
9:55 AM 43.3 °F 40.7 °F 36.5 °F 77% 30.08 in 10.0 mi ESE 4.6 mph - N/A   Clear
10:15 AM 44.4 °F 42.0 °F 36.7 °F 74% 30.08 in 10.0 mi ESE 4.6 mph - N/A   Clear
10:35 AM 45.0 °F 42.6 °F 37.0 °F 74% 30.08 in 10.0 mi SSE 4.6 mph - N/A   Mostly Cloudy
10:55 AM 46.2 °F 43.3 °F 37.8 °F 72% 30.06 in 10.0 mi ESE 5.8 mph - N/A   Mostly Cloudy
11:15 AM 47.3 °F - 37.8 °F 69% 30.05 in 10.0 mi SSE 3.5 mph - N/A   Overcast
11:35 AM 48.2 °F - 38.5 °F 69% 30.04 in 10.0 mi SE 3.5 mph - N/A   Overcast
11:55 AM 48.6 °F - 38.1 °F 67% 30.03 in 10.0 mi South 6.9 mph - N/A   Overcast
12:15 PM 49.1 °F - 38.7 °F 67% 30.02 in 10.0 mi SSE 3.5 mph - N/A   Overcast
12:35 PM 50.0 °F - 39.2 °F 66% 30.00 in 10.0 mi SSE 4.6 mph - N/A   Overcast
12:55 PM 50.7 °F - 38.3 °F 62% 29.99 in 10.0 mi Calm Calm - N/A   Unknown
1:15 PM 52.0 °F - 39.4 °F 62% 29.98 in 10.0 mi East 3.5 mph - N/A   Unknown
1:35 PM 52.5 °F - 39.7 °F 62% 29.98 in 10.0 mi Calm Calm - N/A   Overcast
1:55 PM 52.7 °F - 39.9 °F 62% 29.98 in 10.0 mi Calm Calm - N/A   Scattered Clouds
2:15 PM 53.2 °F - 39.9 °F 61% 29.98 in 10.0 mi SSE 3.5 mph - N/A   Unknown
2:35 PM 52.7 °F - 40.3 °F 63% 29.97 in 10.0 mi ESE 4.6 mph - N/A   Overcast
2:55 PM 52.7 °F - 40.6 °F 64% 29.97 in 10.0 mi East 3.5 mph - N/A   Overcast
3:15 PM 52.3 °F - 40.8 °F 65% 29.97 in 10.0 mi ESE 4.6 mph - N/A   Overcast
3:35 PM 51.8 °F - 41.0 °F 67% 29.97 in 10.0 mi SSE 5.8 mph - N/A   Overcast
3:55 PM 51.1 °F - 41.2 °F 69% 29.97 in 10.0 mi SE 4.6 mph - N/A   Overcast
4:15 PM 50.9 °F - 41.2 °F 69% 29.97 in 10.0 mi SE 4.6 mph - N/A   Mostly Cloudy
4:35 PM 49.8 °F - 41.9 °F 74% 29.98 in 10.0 mi SE 3.5 mph - N/A   Mostly Cloudy
4:55 PM 50.2 °F - 41.2 °F 71% 29.97 in 10.0 mi ESE 4.6 mph - N/A   Mostly Cloudy
5:15 PM 49.3 °F - 41.4 °F 74% 29.96 in 10.0 mi ESE 4.6 mph - N/A   Scattered Clouds
5:35 PM 49.5 °F - 41.2 °F 73% 29.96 in 10.0 mi East 3.5 mph - N/A   Scattered Clouds
5:55 PM 49.5 °F - 41.2 °F 73% 29.96 in 10.0 mi ESE 4.6 mph - N/A   Mostly Cloudy
6:15 PM 49.5 °F - 41.5 °F 74% 29.96 in 10.0 mi ESE 4.6 mph - N/A   Overcast
6:35 PM 49.3 °F - 42.1 °F 76% 29.97 in 10.0 mi ESE 3.5 mph - N/A   Overcast
6:55 PM 49.5 °F - 42.3 °F 76% 29.96 in 10.0 mi East 3.5 mph - N/A   Overcast
7:15 PM 49.6 °F - 42.1 °F 75% 29.97 in 10.0 mi ESE 4.6 mph - N/A   Overcast
7:35 PM 49.6 °F - 42.6 °F 77% 29.96 in 10.0 mi ESE 3.5 mph - N/A   Mostly Cloudy
7:55 PM 49.6 °F - 42.8 °F 77% 29.96 in 10.0 mi SE 4.6 mph - N/A   Mostly Cloudy
8:15 PM 49.8 °F - 43.2 °F 78% 29.96 in 10.0 mi SE 3.5 mph - N/A   Scattered Clouds
8:35 PM 50.0 °F - 43.7 °F 79% 29.96 in 10.0 mi SE 3.5 mph - N/A   Mostly Cloudy
8:55 PM 50.0 °F - 43.9 °F 79% 29.97 in 10.0 mi SE 4.6 mph - N/A   Overcast
9:15 PM 50.4 °F - 44.2 °F 80% 29.96 in 10.0 mi SSE 6.9 mph - N/A   Mostly Cloudy
9:35 PM 50.2 °F - 44.6 °F 81% 29.96 in 10.0 mi SE 6.9 mph - N/A   Mostly Cloudy
9:55 PM 50.2 °F - 44.6 °F 81% 29.96 in 10.0 mi SSE 6.9 mph - N/A   Mostly Cloudy
10:15 PM 49.3 °F - 44.2 °F 83% 29.96 in 10.0 mi SSE 4.6 mph - N/A   Scattered Clouds
10:35 PM 48.2 °F - 43.7 °F 84% 29.96 in 10.0 mi Calm Calm - N/A   Scattered Clouds
10:55 PM 47.8 °F - 43.7 °F 86% 29.96 in 10.0 mi Calm Calm - N/A   Mostly Cloudy
11:15 PM 48.6 °F - 44.4 °F 86% 29.95 in 10.0 mi Calm Calm - N/A   Mostly Cloudy
11:35 PM 48.2 °F - 44.1 °F 86% 29.95 in 10.0 mi Calm Calm - N/A   Scattered Clouds
11:55 PM 48.6 °F - 44.6 °F 86% 29.95 in 10.0 mi Calm Calm - N/A   Mostly Cloudy